Location: Prague
(50.0830°N, 14.4670°E)
Time: 02:51:33
(UTC+01:00)

AO-7 - Pass Details

Date: 09 December 2021
Orbit: 1440 x 1459 km, 101.9° (Epoch: 28 January)

Event Time Altitude Azimuth Distance (km) Brightness Sun altitude
Rises 03:28:11 0° 22° (NNE) 4,551 ? -40.5°
Reaches altitude 10° 03:31:18 10° 31° (NNE) 3,571 ? -40.0°
Maximum altitude 03:38:52 37° 97° (E) 2,116 ? -38.9°
Drops below altitude 10° 03:46:23 10° 162° (SSE) 3,565 ? -37.7°
Sets 03:49:28 0° 170° (S) 4,542 ? -37.2°
